User: anonymous
Location: Notre Dame Regional High School Observatory
(37.3056°N, 89.6097°W)
Time: 21:47:46
(UTC-05:00)
Language:

ATLAS 3B R/B - Orbit

View from above orbital plane
View from above orbital plane
View from above satellite
View from above satellite

Ground track
Ground track

The orbit data is extracted from the following two-line orbital elements,

1 28538U 05004B   14106.04153088 0.00000100  00000-0  15155-3 0    00
2 28538  63.8150 337.0517 0220000 245.8443 114.1557 13.43016861    08
Epoch (UTC): 16 April 2014 00:59:48
Eccentricity: 0.0220000
inclination: 63.8150°
perigee height: 933 km
apogee height: 1262 km
right ascension of ascending node: 337.0517°
argument of perigee: 245.8443°
revolutions per day: 13.43016861
mean anomaly at epoch: 114.1557°
orbit number at epoch: 0

The dashed part of the orbit path shows where the satellite is in the earth's shadow,  

DLR